Back to catalog

SS 3

AliveScienceLEO
NORAD 10594·PAYLOAD·🇺🇸 United States

Launched Dec 8, 1977 from Vandenberg Space Force Base

Loading…

Next Passes (next 24 hours)

TLE

FreshSource: Space-Track

Epoch: Sep 14, 2026, 07:57 UTC

1 10594U 77112F   26257.33138664  .00000172  00000-0  74610-4 0  9995
2 10594  63.3315 279.2069 0472840 165.1381 196.4146 14.03196299379809

Track SS 3 in real time with AllMySat

Download on the App Store